Time,TemperatureF,DewpointF,PressureIn,WindDirection,WindDirectionDegrees,WindSpeedMPH,WindSpeedGustMPH,Humidity,HourlyPrecipIn,Conditions,Clouds,dailyrainin,SoftwareType,DateUTC
2013-04-26 00:07:00,47.7,45.0,30.25,WSW,250,5.0,8.0,90,0.00,,,0.00,weatherlink.com 1.10,2013-04-26 04:07:00,
2013-04-26 00:22:00,47.7,45.0,30.25,WSW,256,8.0,8.0,91,0.00,,,0.00,weatherlink.com 1.10,2013-04-26 04:22:00,
2013-04-26 00:37:00,47.9,45.0,30.25,West,262,6.0,8.0,90,0.00,,,0.00,weatherlink.com 1.10,2013-04-26 04:37:00,
2013-04-26 00:52:00,47.0,45.0,30.25,West,280,3.0,5.0,91,0.00,,,0.00,weatherlink.com 1.10,2013-04-26 04:52:00,
2013-04-26 01:07:00,46.2,44.0,30.26,WNW,287,1.0,4.0,91,0.00,,,0.00,weatherlink.com 1.10,2013-04-26 05:07:00,
2013-04-26 01:22:00,45.1,43.0,30.26,NW,304,1.0,2.0,92,0.00,,,0.00,weatherlink.com 1.10,2013-04-26 05:22:00,
2013-04-26 01:37:00,44.6,43.0,30.26,WNW,293,0.0,2.0,93,0.00,,,0.00,weatherlink.com 1.10,2013-04-26 05:37:00,
2013-04-26 01:52:00,43.2,42.0,30.26,North,1,0.0,1.0,94,0.00,,,0.00,weatherlink.com 1.10,2013-04-26 05:52:00,
2013-04-26 02:07:00,42.0,41.0,30.27,NE,56,1.0,3.0,95,0.00,,,0.00,weatherlink.com 1.10,2013-04-26 06:07:00,
2013-04-26 02:22:00,41.9,41.0,30.26,NE,46,1.0,1.0,96,0.00,,,0.00,weatherlink.com 1.10,2013-04-26 06:22:00,
2013-04-26 02:37:00,41.9,41.0,30.27,ENE,66,1.0,1.0,96,0.00,,,0.00,weatherlink.com 1.10,2013-04-26 06:37:00,
2013-04-26 02:53:00,41.5,41.0,30.27,NNE,13,0.0,1.0,96,0.00,,,0.00,weatherlink.com 1.10,2013-04-26 06:53:00,
2013-04-26 03:08:00,40.9,40.0,30.27,ENE,66,1.0,2.0,96,0.00,,,0.00,weatherlink.com 1.10,2013-04-26 07:08:00,
2013-04-26 03:23:00,41.0,40.0,30.28,ENE,68,2.0,3.0,96,0.00,,,0.00,weatherlink.com 1.10,2013-04-26 07:23:00,
2013-04-26 03:38:00,41.2,40.0,30.28,NNE,30,3.0,3.0,95,0.00,,,0.00,weatherlink.com 1.10,2013-04-26 07:38:00,
2013-04-26 03:53:00,41.6,40.0,30.28,NNE,27,2.0,3.0,95,0.00,,,0.00,weatherlink.com 1.10,2013-04-26 07:53:00,
2013-04-26 04:08:00,42.1,40.0,30.29,NE,56,3.0,3.0,93,0.00,,,0.00,weatherlink.com 1.10,2013-04-26 08:08:00,
2013-04-26 04:23:00,42.0,40.0,30.29,ENE,68,1.0,2.0,92,0.00,,,0.00,weatherlink.com 1.10,2013-04-26 08:23:00,
2013-04-26 04:38:00,42.5,40.0,30.30,NE,56,3.0,5.0,91,0.00,,,0.00,weatherlink.com 1.10,2013-04-26 08:38:00,
2013-04-26 04:53:00,43.4,40.0,30.30,NNE,13,5.0,7.0,89,0.00,,,0.00,weatherlink.com 1.10,2013-04-26 08:53:00,
2013-04-26 05:08:00,43.9,41.0,30.31,NE,44,4.0,7.0,89,0.00,,,0.00,weatherlink.com 1.10,2013-04-26 09:08:00,
2013-04-26 05:23:00,43.9,41.0,30.32,East,87,1.0,6.0,89,0.00,,,0.00,weatherlink.com 1.10,2013-04-26 09:23:00,
2013-04-26 05:38:00,43.4,41.0,30.32,NE,56,1.0,4.0,91,0.00,,,0.00,weatherlink.com 1.10,2013-04-26 09:38:00,
2013-04-26 05:53:00,43.3,41.0,30.33,NE,40,2.0,4.0,91,0.00,,,0.00,weatherlink.com 1.10,2013-04-26 09:53:00,
2013-04-26 06:08:00,43.8,41.0,30.33,ENE,60,8.0,8.0,91,0.00,,,0.00,weatherlink.com 1.10,2013-04-26 10:08:00,
2013-04-26 06:23:00,45.0,42.0,30.34,East,79,3.0,6.0,88,0.00,,,0.00,weatherlink.com 1.10,2013-04-26 10:23:00,
2013-04-26 06:38:00,45.7,42.0,30.34,NE,38,2.0,5.0,86,0.00,,,0.00,weatherlink.com 1.10,2013-04-26 10:38:00,
2013-04-26 06:53:00,46.8,42.0,30.34,East,79,2.0,9.0,83,0.00,,,0.00,weatherlink.com 1.10,2013-04-26 10:53:00,
2013-04-26 07:08:00,47.6,42.0,30.35,East,96,4.0,10.0,80,0.00,,,0.00,weatherlink.com 1.10,2013-04-26 11:08:00,
2013-04-26 07:23:00,47.7,40.0,30.36,ENE,71,4.0,10.0,76,0.00,,,0.00,weatherlink.com 1.10,2013-04-26 11:23:00,
2013-04-26 07:38:00,47.9,41.0,30.36,ENE,78,5.0,10.0,76,0.00,,,0.00,weatherlink.com 1.10,2013-04-26 11:38:00,
2013-04-26 07:53:00,48.6,41.0,30.36,ENE,66,4.0,11.0,74,0.00,,,0.00,weatherlink.com 1.10,2013-04-26 11:53:00,
2013-04-26 08:08:00,49.6,41.0,30.37,East,79,4.0,13.0,71,0.00,,,0.00,weatherlink.com 1.10,2013-04-26 12:08:00,
2013-04-26 08:23:00,49.1,40.0,30.37,East,84,6.0,10.0,71,0.00,,,0.00,weatherlink.com 1.10,2013-04-26 12:23:00,
2013-04-26 08:38:00,49.0,40.0,30.37,ENE,68,9.0,11.0,72,0.00,,,0.00,weatherlink.com 1.10,2013-04-26 12:38:00,
2013-04-26 08:53:00,49.9,41.0,30.37,ENE,75,6.0,12.0,71,0.00,,,0.00,weatherlink.com 1.10,2013-04-26 12:53:00,
2013-04-26 09:08:00,50.4,40.0,30.38,ESE,114,2.0,12.0,67,0.00,,,0.00,weatherlink.com 1.10,2013-04-26 13:08:00,
2013-04-26 09:23:00,50.1,40.0,30.37,NE,36,3.0,15.0,68,0.00,,,0.00,weatherlink.com 1.10,2013-04-26 13:23:00,
2013-04-26 09:38:00,50.3,40.0,30.38,ESE,107,9.0,16.0,67,0.00,,,0.00,weatherlink.com 1.10,2013-04-26 13:38:00,
2013-04-26 09:53:00,51.3,40.0,30.38,ENE,63,5.0,14.0,65,0.00,,,0.00,weatherlink.com 1.10,2013-04-26 13:53:00,
2013-04-26 10:09:00,51.2,40.0,30.39,ENE,77,7.0,11.0,65,0.00,,,0.00,weatherlink.com 1.10,2013-04-26 14:09:00,
2013-04-26 10:24:00,51.4,40.0,30.39,East,81,5.0,14.0,66,0.00,,,0.00,weatherlink.com 1.10,2013-04-26 14:24:00,
2013-04-26 10:39:00,51.2,39.0,30.40,NE,52,6.0,15.0,64,0.00,,,0.00,weatherlink.com 1.10,2013-04-26 14:39:00,
2013-04-26 10:54:00,51.4,39.0,30.40,East,84,13.0,14.0,64,0.00,,,0.00,weatherlink.com 1.10,2013-04-26 14:54:00,
2013-04-26 11:09:00,51.0,39.0,30.41,ENE,70,10.0,14.0,63,0.00,,,0.00,weatherlink.com 1.10,2013-04-26 15:09:00,
2013-04-26 11:24:00,51.8,40.0,30.40,ENE,70,8.0,13.0,65,0.00,,,0.00,weatherlink.com 1.10,2013-04-26 15:24:00,
2013-04-26 11:39:00,52.1,40.0,30.40,NE,44,6.0,12.0,64,0.00,,,0.00,weatherlink.com 1.10,2013-04-26 15:39:00,
2013-04-26 11:54:00,52.4,39.0,30.40,NNE,25,5.0,13.0,61,0.00,,,0.00,weatherlink.com 1.10,2013-04-26 15:54:00,
2013-04-26 12:24:00,53.5,40.0,30.39,NE,51,6.0,10.0,60,0.00,,,0.00,weatherlink.com 1.10,2013-04-26 16:24:00,
2013-04-26 12:39:00,53.7,39.0,30.39,ENE,59,6.0,10.0,58,0.00,,,0.00,weatherlink.com 1.10,2013-04-26 16:39:00,
2013-04-26 12:54:00,53.6,39.0,30.39,East,83,7.0,10.0,58,0.00,,,0.00,weatherlink.com 1.10,2013-04-26 16:54:00,
2013-04-26 13:09:00,53.7,39.0,30.38,NE,48,7.0,11.0,57,0.00,,,0.00,weatherlink.com 1.10,2013-04-26 17:09:00,
2013-04-26 13:25:00,52.7,39.0,30.39,ENE,75,6.0,12.0,61,0.00,,,0.00,weatherlink.com 1.10,2013-04-26 17:25:00,
2013-04-26 13:39:00,53.2,40.0,30.38,NNE,33,6.0,10.0,61,0.00,,,0.00,weatherlink.com 1.10,2013-04-26 17:39:00,
2013-04-26 13:54:00,53.7,39.0,30.38,East,100,7.0,11.0,58,0.00,,,0.00,weatherlink.com 1.10,2013-04-26 17:54:00,
2013-04-26 14:09:00,53.4,40.0,30.38,ENE,61,7.0,10.0,60,0.00,,,0.00,weatherlink.com 1.10,2013-04-26 18:09:00,
2013-04-26 14:24:00,53.2,40.0,30.38,NE,54,4.0,11.0,62,0.00,,,0.00,weatherlink.com 1.10,2013-04-26 18:24:00,
2013-04-26 14:39:00,53.9,42.0,30.38,East,98,2.0,7.0,64,0.00,,,0.00,weatherlink.com 1.10,2013-04-26 18:39:00,
2013-04-26 14:54:00,53.4,43.0,30.38,ENE,63,5.0,10.0,67,0.00,,,0.00,weatherlink.com 1.10,2013-04-26 18:54:00,
2013-04-26 15:09:00,54.1,42.0,30.38,NE,56,5.0,8.0,65,0.00,,,0.00,weatherlink.com 1.10,2013-04-26 19:09:00,
2013-04-26 15:24:00,53.5,43.0,30.38,East,81,4.0,9.0,67,0.00,,,0.00,weatherlink.com 1.10,2013-04-26 19:24:00,
2013-04-26 15:39:00,53.1,43.0,30.38,NE,56,8.0,10.0,69,0.00,,,0.00,weatherlink.com 1.10,2013-04-26 19:39:00,
2013-04-26 15:54:00,52.4,43.0,30.38,East,84,5.0,10.0,70,0.00,,,0.00,weatherlink.com 1.10,2013-04-26 19:54:00,
2013-04-26 16:09:00,51.9,42.0,30.38,ENE,75,7.0,10.0,69,0.00,,,0.00,weatherlink.com 1.10,2013-04-26 20:09:00,
2013-04-26 16:24:00,51.2,43.0,30.37,ENE,78,6.0,11.0,73,0.00,,,0.00,weatherlink.com 1.10,2013-04-26 20:24:00,
2013-04-26 16:39:00,50.8,42.0,30.38,East,101,5.0,11.0,72,0.00,,,0.00,weatherlink.com 1.10,2013-04-26 20:39:00,
2013-04-26 16:54:00,50.8,42.0,30.38,ENE,65,3.0,10.0,72,0.00,,,0.00,weatherlink.com 1.10,2013-04-26 20:54:00,
2013-04-26 17:09:00,50.6,43.0,30.38,East,100,7.0,12.0,74,0.00,,,0.00,weatherlink.com 1.10,2013-04-26 21:09:00,
2013-04-26 17:24:00,49.9,43.0,30.38,ENE,73,6.0,10.0,76,0.00,,,0.00,weatherlink.com 1.10,2013-04-26 21:24:00,
2013-04-26 17:39:00,49.8,43.0,30.38,ENE,61,5.0,9.0,77,0.00,,,0.00,weatherlink.com 1.10,2013-04-26 21:39:00,
2013-04-26 17:54:00,49.6,43.0,30.39,ENE,75,3.0,9.0,78,0.00,,,0.00,weatherlink.com 1.10,2013-04-26 21:54:00,
2013-04-26 18:09:00,49.7,43.0,30.39,NE,53,1.0,6.0,78,0.00,,,0.00,weatherlink.com 1.10,2013-04-26 22:09:00,
2013-04-26 18:24:00,49.0,43.0,30.39,NE,52,7.0,7.0,80,0.00,,,0.00,weatherlink.com 1.10,2013-04-26 22:24:00,
2013-04-26 18:39:00,48.1,43.0,30.39,ENE,72,5.0,7.0,82,0.00,,,0.00,weatherlink.com 1.10,2013-04-26 22:39:00,
2013-04-26 18:54:00,47.1,43.0,30.39,NE,54,4.0,8.0,85,0.00,,,0.00,weatherlink.com 1.10,2013-04-26 22:54:00,
2013-04-26 19:09:00,46.4,43.0,30.40,East,82,4.0,7.0,86,0.00,,,0.00,weatherlink.com 1.10,2013-04-26 23:09:00,
2013-04-26 19:24:00,45.6,42.0,30.40,East,100,4.0,5.0,88,0.00,,,0.00,weatherlink.com 1.10,2013-04-26 23:24:00,
2013-04-26 19:39:00,44.9,42.0,30.41,ENE,64,1.0,4.0,90,0.00,,,0.00,weatherlink.com 1.10,2013-04-26 23:39:00,
2013-04-26 20:09:00,43.8,42.0,30.41,ENE,72,0.0,1.0,92,0.00,,,0.00,weatherlink.com 1.10,2013-04-27 00:09:00,
2013-04-26 20:25:00,43.4,41.0,30.42,ENE,63,1.0,1.0,92,0.00,,,0.00,weatherlink.com 1.10,2013-04-27 00:25:00,
2013-04-26 20:40:00,43.0,41.0,30.42,ENE,70,0.0,1.0,93,0.00,,,0.00,weatherlink.com 1.10,2013-04-27 00:40:00,
2013-04-26 20:55:00,42.7,41.0,30.42,ENE,77,0.0,1.0,94,0.00,,,0.00,weatherlink.com 1.10,2013-04-27 00:55:00,
2013-04-26 21:10:00,42.5,41.0,30.42,ENE,64,0.0,2.0,94,0.00,,,0.00,weatherlink.com 1.10,2013-04-27 01:10:00,
2013-04-26 21:25:00,42.5,41.0,30.42,ENE,64,0.0,1.0,95,0.00,,,0.00,weatherlink.com 1.10,2013-04-27 01:25:00,
2013-04-26 21:40:00,42.3,41.0,30.42,ENE,64,0.0,1.0,95,0.00,,,0.00,weatherlink.com 1.10,2013-04-27 01:40:00,
2013-04-26 21:55:00,41.9,41.0,30.42,ENE,72,0.0,1.0,95,0.00,,,0.00,weatherlink.com 1.10,2013-04-27 01:55:00,
2013-04-26 22:10:00,41.6,40.0,30.42,East,79,1.0,2.0,95,0.00,,,0.00,weatherlink.com 1.10,2013-04-27 02:10:00,
2013-04-26 22:25:00,41.7,41.0,30.41,East,79,0.0,1.0,96,0.00,,,0.00,weatherlink.com 1.10,2013-04-27 02:25:00,
2013-04-26 22:40:00,41.6,41.0,30.41,East,81,1.0,1.0,96,0.00,,,0.00,weatherlink.com 1.10,2013-04-27 02:40:00,
2013-04-26 22:55:00,41.5,41.0,30.42,ENE,66,0.0,1.0,96,0.00,,,0.00,weatherlink.com 1.10,2013-04-27 02:55:00,
2013-04-26 23:10:00,40.9,40.0,30.41,ENE,66,0.0,0.0,96,0.00,,,0.00,weatherlink.com 1.10,2013-04-27 03:10:00,
2013-04-26 23:25:00,41.1,40.0,30.41,ESE,106,0.0,1.0,97,0.00,,,0.00,weatherlink.com 1.10,2013-04-27 03:25:00,
2013-04-26 23:40:00,40.3,39.0,30.41,NE,39,0.0,0.0,96,0.00,,,0.00,weatherlink.com 1.10,2013-04-27 03:40:00,
2013-04-26 23:55:00,39.7,39.0,30.41,NE,39,0.0,0.0,97,0.00,,,0.00,weatherlink.com 1.10,2013-04-27 03:55:00,